Location: Newark
(48.0000°N, 67.0000°E)
Time: 16:19:56
(UTC+00:00)

ISS - Visible Passes

Search period start: 19 January 2021 00:00
Search period end: 29 January 2021 00:00
Orbit: 418 x 419 km, 51.6° (Epoch: 20 January)

Date Brightness Start Highest point End Pass type
(mag) Time Alt. Az. Time Alt. Az. Time Alt. Az.
19 Jan -2.0 13:49:13 10° S 13:51:38 19° SE 13:51:38 19° SE visible
20 Jan -1.4 13:02:41 10° SSE 13:04:10 12° SE 13:05:39 10° ESE visible
20 Jan -2.2 14:37:05 10° SW 14:39:04 32° SW 14:39:04 32° SW visible
21 Jan -3.2 13:49:32 10° SW 13:52:44 42° SSE 13:53:28 36° ESE visible
21 Jan -0.3 15:26:11 10° W 15:26:26 12° W 15:26:26 12° W visible
22 Jan -2.5 13:02:10 10° SSW 13:05:06 28° SE 13:07:48 11° E visible
22 Jan -2.6 14:38:20 10° WSW 14:40:46 43° W 14:40:46 43° W visible
23 Jan -3.8 13:50:33 10° WSW 13:53:56 89° SE 13:55:02 40° ENE visible
23 Jan -0.3 15:27:41 10° WNW 15:27:59 12° WNW 15:27:59 12° WNW visible
24 Jan -3.6 13:02:51 10° SW 13:06:11 63° SSE 13:09:16 12° ENE visible
24 Jan -2.4 14:39:48 10° W 14:42:13 37° NW 14:42:13 37° NW visible
25 Jan -3.4 13:51:54 10° W 13:55:13 55° NNW 13:56:24 34° NE visible
25 Jan -0.3 15:29:06 10° WNW 15:29:21 12° WNW 15:29:21 12° WNW visible
26 Jan -3.6 13:04:01 10° WSW 13:07:23 70° NNW 13:10:34 11° ENE visible
26 Jan -2.3 14:41:14 10° WNW 14:43:31 33° NW 14:43:31 33° NW visible
27 Jan -3.1 13:53:19 10° WNW 13:56:34 43° N 13:57:41 31° NE visible
27 Jan -0.4 15:30:21 10° WNW 15:30:37 12° WNW 15:30:37 12° WNW visible
28 Jan -3.2 13:05:23 10° W 13:08:40 47° N 13:11:50 11° ENE visible
28 Jan -2.4 14:42:31 10° WNW 14:44:47 35° NW 14:44:47 35° NW visible
